Location: Manteno Community Hall
(38.3339°N, 100.0632°W)
Time: 15:39:16
(UTC+00:00)

Daily predictions for brighter satellites

Satellite Brightness Start Highest point End
(mag) Time Altitude Azimuth Time Altitude Azimuth Time Altitude Azimuth
Cosmos 1782 3.2 12:05:07 41° W 12:05:15 41° W 12:09:02 10° SSW
Envisat 4.3 12:03:27 10° NNE 12:08:16 41° E 12:13:02 10° S
COSMO-SKYMED 1 2.4 12:04:22 10° S 12:08:41 74° WSW 12:12:56 11° NNW
H-2A R/B 3.2 12:06:37 10° NNE 12:10:29 63° E 12:14:18 10° S
Cosmos 1844 Rocket 3.0 12:05:23 10° SW 12:10:44 43° WNW 12:16:09 10° N
Cosmos 1937 Rocket 3.7 12:07:57 10° SW 12:12:50 44° WNW 12:17:49 10° N
Cosmos 1805 Rocket 3.7 12:14:52 10° S 12:19:17 81° E 12:23:46 10° N
SAR-Lupe-4 3.8 12:18:10 10° S 12:21:35 45° W 12:23:45 20° NW
Cosmos 1437 Rocket 3.3 12:18:19 10° N 12:22:02 58° E 12:25:45 10° SSE
ASTRO F (AKARI) 4.1 12:23:22 10° N 12:26:31 81° WNW 12:29:43 10° SSW
Cosmos 1689 Rocket 2.1 12:23:57 10° S 12:26:43 48° W 12:28:17 22° NNW
RESURS DK-1 4.3 12:28:09 14° NNW 12:28:09 14° NNW 12:29:22 10° NNW
PSLV R/B 3.9 12:23:41 10° S 12:27:46 61° WSW 12:31:51 10° NNW
Cosmos 1356 4.2 12:25:50 10° S 12:29:09 53° E 12:32:30 10° NNE
Cosmos 1844 4.2 12:27:03 10° SW 12:32:07 36° WNW 12:37:14 10° N
YAOGAN 6 2.8 12:29:36 10° NNE 12:33:05 68° E 12:36:33 10° S
SMAP 4.4 12:31:46 10° NNE 12:36:13 43° E 12:40:38 10° S
ATLAS 5 CENTAUR R/B 1.3 12:33:06 10° SSW 12:37:00 87° NW 12:41:19 10° NNE
Cosmos 2150 Rocket 4.1 12:33:12 10° SSW 12:38:32 82° ESE 12:43:48 10° NNE
BREEZE-M DEB (TANK) 2.7 12:34:21 14° NW 12:39:25 86° SSW 12:41:54 10° SE
Cosmos 2298 Rocket 4.0 12:34:43 10° SSW 12:40:00 89° WNW 12:45:20 10° NNE
ATLAS CENTAUR R/B 2.0 12:39:04 17° WNW 12:41:30 34° WSW 12:45:10 10° S
CZ-2C R/B 4.1 12:37:32 10° SE 12:42:34 39° ENE 12:47:31 10° N
Nadezhda 3 Rocket 4.0 12:37:09 10° NNW 12:43:21 65° W 12:49:28 10° S
CZ-4B DEB 4.2 12:38:28 10° NNE 12:43:58 88° ESE 12:49:26 10° SSW
OAO 2 Rocket 4.3 12:41:37 12° W 12:45:52 39° SSW 12:50:37 10° SE
Lacrosse 5 3.9 12:46:10 10° NW 12:48:09 12° NNW 12:50:09 10° N
ATLAS 3B R/B 3.3 12:43:41 10° NW 12:50:05 40° WSW 12:56:46 10° S
GPS 2-04 Rocket1 4.0 12:47:15 11° W 12:50:38 29° SSW 12:53:58 10° SE
Cosmos 1633 Rocket 3.5 12:46:44 10° S 12:51:07 68° E 12:55:30 10° NNE
PAYLOAD B 4.2 12:51:07 10° NNE 12:56:39 88° WNW 13:02:08 10° SSW
EO 1 Delta rocket 4.4 12:53:10 10° SSW 12:57:55 39° W 13:02:16 10° NNW
Atlas Centaur 2 3.5 12:53:39 10° WSW 12:59:18 31° SSW 13:03:56 10° SE
Cosmos 2228 Rocket 4.1 13:02:39 10° NW 13:06:15 25° W 13:09:50 10° SW
COSMOS 2455 3.5 13:02:20 10° WSW 13:07:41 33° NW 13:13:04 10° N
Cosmos 2082 Rocket 3.8 13:03:29 10° N 13:08:36 32° ENE 13:13:41 10° ESE
CZ-4B R/B 3.3 13:06:05 10° NNE 13:11:30 89° ESE 13:16:58 10° SSW
SL-16 R/B 2.6 23:37:42 10° SSW 23:43:21 70° WNW 23:49:00 10° NNE
Cosmos 2297 3.7 23:38:12 10° NNW 23:43:52 65° ENE 23:49:32 10° SSE
Meteor 1-4 Rocket 3.2 23:45:11 10° SSE 23:48:29 35° E 23:51:45 10° NNE
Cosmos 1356 3.8 23:47:03 10° NNW 23:50:28 69° W 23:53:51 10° S
Cosmos 389 Rocket 4.2 23:49:52 10° SW 23:52:59 33° WNW 23:56:07 10° N
